• In Czech Republic
  • List of Countries
  • For 7 days
  • Water Temperature
  • Satellite Maps
  • Weather Map
  • Weather Widgets
  • user-avatar
    Login

    Hourly Weather Bazarnyy

    Today, 14 November, Wednesday

    Time Temperature Precipitation Wind Pressure Humidity
    00:00 -8°C° 0 mm 3 mps 768 mmHg 32%
    01:00 -8°C° 0 mm 3 mps 768 mmHg 33%
    02:00 -8°C° 0 mm 3 mps 767 mmHg 33%
    03:00 -8°C° 0 mm 3 mps 767 mmHg 37%
    04:00 -8°C° 0 mm 3 mps 767 mmHg 38%
    05:00 -9°C° 0 mm 3 mps 766 mmHg 38%
    06:00 -9°C° 0 mm 3 mps 766 mmHg 39%
    07:00 -10°C° 0 mm 4 mps 766 mmHg 38%
    08:00 -9°C° 0 mm 4 mps 765 mmHg 38%
    09:00 -9°C° 0 mm 4 mps 765 mmHg 36%
    10:00 -8°C° 0 mm 4 mps 765 mmHg 35%
    11:00 -7°C° 0 mm 4 mps 765 mmHg 34%
    12:00 -6°C° 0 mm 5 mps 765 mmHg 33%
    13:00 -5°C° 0 mm 5 mps 764 mmHg 35%
    14:00 -4°C° 0 mm 4 mps 764 mmHg 36%
    15:00 -3°C° 0 mm 4 mps 763 mmHg 38%
    16:00 -4°C° 0 mm 4 mps 763 mmHg 41%
    17:00 -5°C° 0 mm 4 mps 763 mmHg 44%
    18:00 -5°C° 0 mm 4 mps 763 mmHg 47%
    19:00 -5°C° 0 mm 4 mps 763 mmHg 46%
    20:00 -5°C° 0 mm 4 mps 763 mmHg 45%
    21:00 -5°C° 0 mm 4 mps 763 mmHg 45%
    22:00 -7°C° 0 mm 4 mps 763 mmHg 43%
    23:00 -7°C° 0 mm 4 mps 763 mmHg 41%

    Tomorrow, 15 November, Thursday

    Time Temperature Precipitation Wind Pressure Humidity
    00:00 -6°C° 0 mm 3 mps 763 mmHg 39%
    01:00 -6°C° 0 mm 3 mps 763 mmHg 38%
    02:00 -6°C° 0 mm 3 mps 763 mmHg 37%
    03:00 -7°C° 0 mm 3 mps 764 mmHg 35%
    04:00 -7°C° 0 mm 3 mps 764 mmHg 35%
    05:00 -7°C° 0 mm 3 mps 764 mmHg 35%
    06:00 -7°C° 0 mm 3 mps 764 mmHg 35%
    07:00 -7°C° 0 mm 3 mps 764 mmHg 34%
    08:00 -6°C° 0 mm 3 mps 764 mmHg 32%
    09:00 -6°C° 0 mm 3 mps 765 mmHg 31%
    10:00 -5°C° 0 mm 3 mps 765 mmHg 29%
    11:00 -4°C° 0 mm 3 mps 765 mmHg 27%
    12:00 -2°C° 0 mm 3 mps 765 mmHg 26%
    13:00 -2°C° 0 mm 3 mps 765 mmHg 25%
    14:00 -2°C° 0 mm 3 mps 765 mmHg 25%
    15:00 -2°C° 0 mm 3 mps 765 mmHg 24%
    16:00 -2°C° 0 mm 3 mps 765 mmHg 26%
    17:00 -4°C° 0 mm 3 mps 766 mmHg 28%
    18:00 -5°C° 0 mm 3 mps 766 mmHg 29%
    19:00 -5°C° 0 mm 3 mps 766 mmHg 29%
    20:00 -5°C° 0 mm 3 mps 766 mmHg 29%
    21:00 -5°C° 0 mm 3 mps 767 mmHg 30%
    22:00 -6°C° 0 mm 3 mps 767 mmHg 30%
    23:00 -6°C° 0 mm 3 mps 767 mmHg 30%

    Day after tomorrow, 16 November, Friday

    Time Temperature Precipitation Wind Pressure Humidity
    00:00 -5°C° 0 mm 2 mps 767 mmHg 30%
    01:00 -5°C° 0 mm 2 mps 767 mmHg 30%
    02:00 -5°C° 0 mm 2 mps 768 mmHg 30%
    03:00 -5°C° 0 mm 2 mps 768 mmHg 30%
    04:00 -5°C° 0 mm 2 mps 768 mmHg 30%
    05:00 -6°C° 0 mm 2 mps 768 mmHg 29%
    06:00 -7°C° 0 mm 3 mps 768 mmHg 29%
    07:00 -6°C° 0 mm 3 mps 768 mmHg 27%
    08:00 -6°C° 0 mm 3 mps 769 mmHg 26%
    09:00 -6°C° 0 mm 3 mps 769 mmHg 25%
    10:00 -5°C° 0 mm 3 mps 769 mmHg 22%
    11:00 -2°C° 0 mm 3 mps 769 mmHg 20%
    12:00 -1°C° 0 mm 3 mps 769 mmHg 18%
    13:00 -1°C° 0 mm 3 mps 769 mmHg 19%
    14:00 -1°C° 0 mm 3 mps 769 mmHg 20%
    15:00 -1°C° 0 mm 3 mps 769 mmHg 21%
    16:00 -2°C° 0 mm 3 mps 769 mmHg 22%
    17:00 -4°C° 0 mm 3 mps 769 mmHg 24%
    18:00 -4°C° 0 mm 3 mps 769 mmHg 25%
    19:00 -5°C° 0 mm 3 mps 769 mmHg 25%
    20:00 -5°C° 0 mm 3 mps 769 mmHg 25%
    21:00 -4°C° 0 mm 2 mps 769 mmHg 25%
    22:00 -4°C° 0 mm 2 mps 769 mmHg 25%
    23:00 -4°C° 0 mm 2 mps 769 mmHg 25%

    17 November, Saturday

    Time Temperature Precipitation Wind Pressure Humidity
    00:00 -4°C° 0 mm 2 mps 769 mmHg 24%
    01:00 -4°C° 0 mm 2 mps 768 mmHg 24%
    02:00 -5°C° 0 mm 2 mps 768 mmHg 24%
    03:00 -5°C° 0 mm 2 mps 768 mmHg 24%
    04:00 -5°C° 0 mm 2 mps 768 mmHg 24%
    05:00 -5°C° 0 mm 2 mps 768 mmHg 24%
    06:00 -5°C° 0 mm 2 mps 767 mmHg 23%
    07:00 -5°C° 0 mm 2 mps 767 mmHg 22%
    08:00 -4°C° 0 mm 2 mps 767 mmHg 22%
    09:00 -2°C° 0 mm 1 mps 767 mmHg 21%
    10:00 -1°C° 0 mm 1 mps 767 mmHg 19%
    11:00 0°C° 0 mm 1 mps 766 mmHg 17%
    12:00 +1°C° 0 mm 1 mps 766 mmHg 15%
    13:00 +1°C° 0 mm 1 mps 765 mmHg 17%
    14:00 +1°C° 0 mm 1 mps 765 mmHg 18%
    15:00 +1°C° 0 mm 1 mps 764 mmHg 19%
    16:00 +1°C° 0 mm 1 mps 764 mmHg 20%
    17:00 0°C° 0 mm 1 mps 763 mmHg 20%
    18:00 -1°C° 0 mm 1 mps 763 mmHg 21%
    19:00 -3°C° 0 mm 2 mps 762 mmHg 21%
    20:00 -3°C° 0 mm 2 mps 762 mmHg 21%
    21:00 -3°C° 0 mm 2 mps 761 mmHg 21%
    22:00 -3°C° 0 mm 2 mps 760 mmHg 21%
    23:00 -4°C° 0 mm 2 mps 760 mmHg 21%

    18 November, Sunday

    Time Temperature Precipitation Wind Pressure Humidity
    00:00 -5°C° 0 mm 3 mps 759 mmHg 22%
    01:00 -5°C° 0 mm 3 mps 758 mmHg 22%
    02:00 -5°C° 0 mm 3 mps 758 mmHg 22%
    03:00 -5°C° 0 mm 3 mps 757 mmHg 22%
    04:00 -5°C° 0 mm 3 mps 756 mmHg 22%
    05:00 -5°C° 0 mm 4 mps 755 mmHg 23%
    06:00 -5°C° 0 mm 4 mps 755 mmHg 23%
    07:00 -4°C° 0 mm 4 mps 754 mmHg 24%
    08:00 -4°C° 0 mm 4 mps 753 mmHg 25%
    09:00 -4°C° 0 mm 4 mps 753 mmHg 26%
    10:00 -4°C° 0.1 mm 4 mps 752 mmHg 32%
    11:00 -4°C° 0.1 mm 3 mps 752 mmHg 39%
    12:00 -2°C° 0.1 mm 3 mps 752 mmHg 45%
    13:00 -2°C° 0.1 mm 3 mps 751 mmHg 49%
    14:00 -2°C° 0.1 mm 3 mps 751 mmHg 53%
    15:00 -4°C° 0.1 mm 3 mps 751 mmHg 57%
    16:00 -4°C° 0.2 mm 3 mps 750 mmHg 60%
    17:00 -3°C° 0.2 mm 2 mps 750 mmHg 62%
    18:00 -3°C° 0.2 mm 2 mps 750 mmHg 65%
    19:00 -3°C° 0.2 mm 2 mps 750 mmHg 67%
    20:00 -3°C° 0.2 mm 2 mps 750 mmHg 69%
    21:00 -3°C° 0.2 mm 2 mps 750 mmHg 71%
    22:00 -3°C° 0.2 mm 2 mps 750 mmHg 69%
    23:00 -3°C° 0.2 mm 2 mps 750 mmHg 67%

    19 November, Monday

    Time Temperature Precipitation Wind Pressure Humidity
    00:00 -3°C° 0.2 mm 2 mps 750 mmHg 65%
    01:00 -3°C° 0.1 mm 2 mps 750 mmHg 61%
    02:00 -3°C° 0.1 mm 2 mps 750 mmHg 57%
    03:00 -3°C° 0.1 mm 2 mps 750 mmHg 53%
    04:00 -5°C° 0 mm 3 mps 751 mmHg 52%
    05:00 -5°C° 0 mm 3 mps 751 mmHg 51%
    06:00 -5°C° 0 mm 3 mps 751 mmHg 50%
    07:00 -5°C° 0 mm 3 mps 752 mmHg 52%
    08:00 -5°C° 0 mm 3 mps 752 mmHg 53%
    09:00 -5°C° 0 mm 3 mps 753 mmHg 54%
    10:00 -4°C° 0 mm 3 mps 753 mmHg 53%
    11:00 -2°C° 0 mm 3 mps 754 mmHg 52%
    12:00 -2°C° 0 mm 4 mps 754 mmHg 52%
    13:00 -1°C° 0 mm 3 mps 754 mmHg 55%
    14:00 -1°C° 0 mm 3 mps 755 mmHg 59%
    15:00 -1°C° 0 mm 3 mps 755 mmHg 63%
    16:00 -2°C° 0 mm 3 mps 755 mmHg 66%
    17:00 -2°C° 0 mm 3 mps 756 mmHg 70%
    18:00 -4°C° 0 mm 3 mps 756 mmHg 74%
    19:00 -4°C° 0 mm 3 mps 756 mmHg 71%
    20:00 -4°C° 0 mm 3 mps 757 mmHg 69%
    21:00 -4°C° 0 mm 3 mps 757 mmHg 66%
    22:00 -4°C° 0 mm 3 mps 757 mmHg 70%
    23:00 -4°C° 0 mm 3 mps 758 mmHg 74%
    Show more